Simultaneous Nadir Overpasses (SNOs) Predictions

Prediction of SNOs between METOP-B and NOAA-19 Satellite Orbit:

Table of predicted SNOs for the next 14.0 days since TLE Epoch: 11/7/2020
Index Date (METOP-B) Time (METOP-B) Lat,Lon (METOP-B) SZA (METOP-B ) Date (NOAA-19) Time (NOAA-19) Lat,Lon (NOAA-19) SZA (NOAA-19 ) Distance(km) Time Diff (sec)
1 11/12/2020 11:40:08 -80.27,-149.78 80.71 11/12/2020 11:39:14 -80.26,-149.97 80.75 3.47 54
2 11/12/2020 12:30:49 80.25, 17.31 99.26 11/12/2020 12:30:09 80.25, 17.45 99.27 2.80 40
3 11/12/2020 13:21:30 -80.26,-175.25 80.71 11/12/2020 13:21:14 -80.25,-175.31 80.73 1.16 16
4 11/12/2020 14:12:10 80.26, -7.84 99.31 11/12/2020 14:12:09 80.24, -7.89 99.29 2.27 1
5 11/12/2020 15:02:52 -80.25, 159.29 80.71 11/12/2020 15:03:14 -80.24, 159.36 80.70 1.28 22
6 11/12/2020 15:53:32 80.25, -33.30 99.31 11/12/2020 15:54:09 80.23, -33.23 99.31 2.43 37
7 11/12/2020 16:44:14 -80.23, 133.83 80.71 11/12/2020 16:45:15 -80.25, 133.69 80.69 3.26 61
